Fairfield, IA

9:23 PM CDT on August 28, 2016 (GMT -0500)
Fairfield Municipal

Weather History for KFFL - January, 2014

Change the Weather History Date:

Wednesday, January 29, 2014

  Actual Average Record
Temperature  
Mean Temperature 18 °F -  
Max Temperature 35 °F 32 °F 59 °F (2013)
Min Temperature 1 °F 13 °F -9 °F (1972)
Degree Days  
Heating Degree Days 47    
Moisture  
Dew Point 1 °F    
Average Humidity 47    
Maximum Humidity 72    
Minimum Humidity 26    
Precipitation  
Precipitation 0.00 in - - ()
Sea Level Pressure  
Sea Level Pressure 30.09 in    
Wind  
Wind Speed 10 mph (SSW)    
Max Wind Speed 22 mph    
Max Gust Speed 29 mph    
Visibility 10 miles    
Events      
Averages and records for this station are not official NWS values.
T = Trace of Precipitation, MM = Missing Value Source: NWS Daily Summary

Daily Weather History Graph

Daily Weather History Graph

Search for Another Location

Airport or City:

Trip Planner

Search our weather history database for the weather conditions in past years. The results will help you decide how hot, cold, wet, or windy it might be!

Date:

Astronomy

Jan. 29, 2014 Rise Set
Actual Time 7:21 AM CST 5:21 PM CST
Civil Twilight 6:52 AM CST 5:50 PM CST
Nautical Twilight 6:19 AM CST 6:23 PM CST
Astronomical Twilight 5:46 AM CST 6:56 PM CST
Moon 5:58 AM CST 4:21 PM CST
Length of Visible Light 10h 58m
Length of Day
9h 59m
Waning Crescent, 2% of the Moon is Illuminated
Jan 29
Waning Crescent
Jan 30
New
Feb 6
First Quarter
Feb 14
Full
Feb 22
Last Quarter

Hourly Weather History & Observations

Time (CST) Temp. Windchill Dew Point Humidity Pressure Visibility Wind Dir Wind Speed Gust Speed Precip Events Conditions
12:15 AM 3.2 °F -6.2 °F -7.6 °F 61% 30.26 in 10.0 mi SW 4.6 mph - N/A   Clear
12:35 AM 5.0 °F -5.6 °F -7.6 °F 56% 30.26 in 10.0 mi SW 5.8 mph - N/A   Clear
12:55 AM 5.0 °F -4.1 °F -7.6 °F 56% 30.26 in 10.0 mi SW 4.6 mph - N/A   Clear
1:15 AM 3.2 °F -7.8 °F -7.6 °F 61% 30.25 in 10.0 mi SW 5.8 mph - N/A   Clear
1:35 AM 1.4 °F -9.9 °F -9.4 °F 61% 30.25 in 10.0 mi SW 5.8 mph - N/A   Clear
1:55 AM 3.2 °F -7.8 °F -7.6 °F 61% 30.25 in 10.0 mi SW 5.8 mph - N/A   Clear
2:15 AM 3.2 °F -9.1 °F -7.6 °F 61% 30.24 in 10.0 mi SSW 6.9 mph - N/A   Clear
2:35 AM 3.2 °F -9.1 °F -7.6 °F 61% 30.24 in 10.0 mi SW 6.9 mph - N/A   Clear
2:55 AM 3.2 °F -7.8 °F -7.6 °F 61% 30.24 in 10.0 mi WSW 5.8 mph - N/A   Clear
3:15 AM 5.0 °F -4.1 °F -7.6 °F 56% 30.23 in 10.0 mi SW 4.6 mph - N/A   Clear
3:35 AM 3.2 °F -6.2 °F -7.6 °F 61% 30.23 in 10.0 mi SW 4.6 mph - N/A   Clear
3:55 AM 3.2 °F -6.2 °F -7.6 °F 61% 30.22 in 10.0 mi WSW 4.6 mph - N/A   Clear
4:15 AM 5.0 °F -4.1 °F -7.6 °F 56% 30.22 in 10.0 mi WSW 4.6 mph - N/A   Clear
4:35 AM 5.0 °F -4.1 °F -7.6 °F 56% 30.22 in 10.0 mi SW 4.6 mph - N/A   Clear
4:55 AM 3.2 °F -6.2 °F -7.6 °F 61% 30.22 in 10.0 mi SSW 4.6 mph - N/A   Clear
5:15 AM 1.4 °F -8.3 °F -7.6 °F 66% 30.22 in 10.0 mi SW 4.6 mph - N/A   Clear
5:35 AM 3.2 °F -6.2 °F -7.6 °F 61% 30.22 in 10.0 mi SSW 4.6 mph - N/A   Clear
5:55 AM 3.2 °F -4.2 °F -7.6 °F 61% 30.21 in 10.0 mi SSW 3.5 mph - N/A   Clear
6:15 AM 3.2 °F -7.8 °F -7.6 °F 61% 30.21 in 10.0 mi SW 5.8 mph - N/A   Clear
6:35 AM 3.2 °F -10.3 °F -7.6 °F 61% 30.21 in 10.0 mi SSW 8.1 mph - N/A   Clear
6:55 AM 1.4 °F -9.9 °F -7.6 °F 66% 30.20 in 10.0 mi SSW 5.8 mph - N/A   Clear
7:15 AM 1.4 °F -9.9 °F -7.6 °F 66% 30.20 in 10.0 mi SSW 5.8 mph - N/A   Clear
7:35 AM 3.2 °F -7.8 °F -7.6 °F 61% 30.19 in 10.0 mi SSW 5.8 mph - N/A   Clear
7:55 AM 3.2 °F -4.2 °F -4.0 °F 72% 30.20 in 10.0 mi SSW 3.5 mph - N/A   Clear
8:15 AM 6.8 °F -3.5 °F -0.4 °F 72% 30.20 in 10.0 mi SSW 5.8 mph - N/A   Clear
8:35 AM 8.6 °F -3.7 °F -0.4 °F 67% 30.20 in 10.0 mi SSW 8.1 mph - N/A   Clear
8:55 AM 12.2 °F -0.2 °F 3.2 °F 67% 30.20 in 10.0 mi SW 9.2 mph - N/A   Clear
9:15 AM 14.0 °F 1.2 °F 5.0 °F 67% 30.19 in 10.0 mi SW 10.4 mph - N/A   Clear
9:35 AM 17.6 °F 6.4 °F 5.0 °F 58% 30.19 in 10.0 mi SW 9.2 mph - N/A   Clear
9:55 AM 19.4 °F 7.2 °F 5.0 °F 54% 30.18 in 10.0 mi SW 11.5 mph - N/A   Clear
10:15 AM 21.2 °F 8.9 °F 5.0 °F 50% 30.18 in 10.0 mi SW 12.7 mph - N/A   Clear
10:35 AM 23.0 °F 11.1 °F 5.0 °F 46% 30.18 in 10.0 mi SW 12.7 mph - N/A   Clear
10:55 AM 24.8 °F 12.9 °F 5.0 °F 43% 30.16 in 10.0 mi SSW 13.8 mph - N/A   Clear
11:15 AM 26.6 °F 14.7 °F 5.0 °F 40% 30.15 in 10.0 mi SSW 15.0 mph - N/A   Clear
11:35 AM 28.4 °F 16.6 °F 5.0 °F 37% 30.14 in 10.0 mi SW 16.1 mph 21.9 mph N/A   Clear
11:55 AM 28.4 °F 15.8 °F 3.2 °F 34% 30.13 in 10.0 mi SSW 18.4 mph - N/A   Clear
12:15 PM 30.2 °F 18.5 °F 3.2 °F 32% 30.13 in 10.0 mi SW 17.3 mph 26.5 mph N/A   Clear
12:35 PM 30.2 °F 17.4 °F 3.2 °F 32% 30.11 in 10.0 mi SW 20.7 mph - N/A   Clear
12:55 PM 32.0 °F 19.5 °F 3.2 °F 30% 30.10 in 10.0 mi SSW 21.9 mph - N/A   Clear
1:15 PM 32.0 °F 20.1 °F 3.2 °F 30% 30.09 in 10.0 mi SSW 19.6 mph 25.3 mph N/A   Clear
1:35 PM 32.0 °F 20.5 °F 3.2 °F 30% 30.07 in 10.0 mi SSW 18.4 mph 27.6 mph N/A   Clear
1:55 PM 33.8 °F 22.8 °F 3.2 °F 28% 30.05 in 10.0 mi SSW 18.4 mph - N/A   Clear
2:15 PM 33.8 °F 24.3 °F 3.2 °F 28% 30.04 in 10.0 mi SSW 13.8 mph 28.8 mph N/A   Clear
2:35 PM 33.8 °F 23.5 °F 3.2 °F 28% 30.03 in 10.0 mi SSW 16.1 mph 24.2 mph N/A   Clear
2:55 PM 35.6 °F 25.9 °F 3.2 °F 26% 30.02 in 10.0 mi SSW 16.1 mph 23.0 mph N/A   Clear
3:15 PM 35.6 °F 25.9 °F 3.2 °F 26% 30.02 in 10.0 mi SSW 16.1 mph 25.3 mph N/A   Clear
3:35 PM 35.6 °F 25.2 °F 5.0 °F 28% 30.00 in 10.0 mi South 18.4 mph 24.2 mph N/A   Clear
3:55 PM 35.6 °F 24.8 °F 5.0 °F 28% 30.00 in 10.0 mi SSW 19.6 mph - N/A   Clear
4:15 PM 35.6 °F 25.9 °F 5.0 °F 28% 29.99 in 10.0 mi SSW 16.1 mph 24.2 mph N/A   Clear
4:35 PM 35.6 °F 25.9 °F 5.0 °F 28% 29.98 in 10.0 mi SSW 16.1 mph 26.5 mph N/A   Clear
4:55 PM 33.8 °F 25.3 °F 6.8 °F 32% 29.98 in 10.0 mi South 11.5 mph 21.9 mph N/A   Clear
5:15 PM 33.8 °F 23.9 °F 6.8 °F 32% 29.97 in 10.0 mi South 15.0 mph - N/A   Clear
5:35 PM 32.0 °F 22.1 °F 6.8 °F 35% 29.96 in 10.0 mi South 13.8 mph - N/A   Clear
5:55 PM 32.0 °F 22.5 °F 6.8 °F 35% 29.96 in 10.0 mi South 12.7 mph - N/A   Clear
6:15 PM 30.2 °F 19.8 °F 8.6 °F 40% 29.95 in 10.0 mi South 13.8 mph - N/A   Clear
6:35 PM 30.2 °F 19.3 °F 8.6 °F 40% 29.95 in 10.0 mi South 15.0 mph - N/A   Clear
6:55 PM 30.2 °F 18.9 °F 8.6 °F 40% 29.95 in 10.0 mi South 16.1 mph - N/A   Clear
7:15 PM 30.2 °F 18.9 °F 8.6 °F 40% 29.94 in 10.0 mi South 16.1 mph - N/A   Clear
7:35 PM 30.2 °F 18.5 °F 10.4 °F 44% 29.93 in 10.0 mi South 17.3 mph 26.5 mph N/A   Clear
7:55 PM 30.2 °F 18.5 °F 8.6 °F 40% 29.92 in 10.0 mi South 17.3 mph 24.2 mph N/A   Clear
8:15 PM 30.2 °F 17.4 °F 8.6 °F 40% 29.91 in 10.0 mi South 20.7 mph 27.6 mph N/A   Clear
8:35 PM 30.2 °F 17.8 °F 8.6 °F 40% 29.91 in 10.0 mi South 19.6 mph 27.6 mph N/A   Clear
8:55 PM 30.2 °F 18.5 °F 8.6 °F 40% 29.90 in 10.0 mi South 17.3 mph 25.3 mph N/A   Clear
9:15 PM 30.2 °F 18.5 °F 8.6 °F 40% 29.90 in 10.0 mi South 17.3 mph 26.5 mph N/A   Clear
9:35 PM 30.2 °F 17.8 °F 8.6 °F 40% 29.89 in 10.0 mi South 19.6 mph 28.8 mph N/A   Clear
9:55 PM 30.2 °F 17.4 °F 8.6 °F 40% 29.87 in 10.0 mi South 20.7 mph 26.5 mph N/A   Clear
10:15 PM 30.2 °F 18.1 °F 8.6 °F 40% 29.87 in 10.0 mi South 18.4 mph 24.2 mph N/A   Clear
10:35 PM 30.2 °F 18.5 °F 8.6 °F 40% 29.86 in 10.0 mi South 17.3 mph 24.2 mph N/A   Clear
10:55 PM 30.2 °F 18.5 °F 8.6 °F 40% 29.86 in 10.0 mi South 17.3 mph 25.3 mph N/A   Clear
11:15 PM 30.2 °F 18.1 °F 8.6 °F 40% 29.86 in 10.0 mi South 18.4 mph - N/A   Clear
11:35 PM 28.4 °F 16.6 °F 8.6 °F 43% 29.84 in 10.0 mi South 16.1 mph 23.0 mph N/A   Clear
11:55 PM 28.4 °F 15.8 °F 8.6 °F 43% 29.83 in 10.0 mi South 18.4 mph 26.5 mph N/A   Clear